Simultaneous Nadir Overpasses (SNOs) Predictions

Prediction of SNOs between NOAA-19 and NPP Satellite Orbit:

Table of predicted SNOs for the next 14.0 days since TLE Epoch: 2/24/2012
Index Date (NOAA-19) Time (NOAA-19) NOAA-19 Lat,Lon Date (NPP) Time (NPP) NPP Lat,Lon Distance(km) Time Diff (sec)
1 03/03/2012 18:37:53 -80.44, 36.51 03/03/2012 18:38:52 -80.45, 36.45 1.24 59
2 03/03/2012 19:28:52 80.46,-156.43 03/03/2012 19:29:37 80.45,-156.29 2.68 45
3 03/03/2012 20:19:53 -80.32, 12.76 03/03/2012 20:20:17 -80.32, 12.65 2.16 24
4 03/03/2012 21:10:52 80.33, 179.83 03/03/2012 21:11:02 80.33, 179.93 1.80 10
5 03/03/2012 22:01:52 -80.15, -10.73 03/03/2012 22:01:41 -80.16, -10.87 3.05 11
6 03/03/2012 22:52:51 80.17, 156.36 03/03/2012 22:52:26 80.17, 156.41 0.96 25
7 03/03/2012 23:43:54
